Flag for Germany Weather for the Past 2 Weeks in Singen (Hohentwiel), Baden-Württemberg, Germany

Now
54 °F

Broken clouds.


Feels Like: 48 °F
Forecast: 36 / 45 °F
Wind: 21 mph from Southwest

Location: Zurich-Kloten

Current Time: Feb 8, 2016 at 4:11:26 PM

Latest Report: Feb 8, 2016 at 3:20 PM


Visibility: N/A

Pressure: 29.68 "Hg

Humidity: 58%

Dew point: 39 °F

Location of Singen (Hohentwiel)Location

Historic Weather in Singen (Hohentwiel) — Graph

°F

Singen (Hohentwiel) Temperature Yesterday

Maximum temperature yesterday: 46 °F (at 12:50 PM)
Minimum temperature yesterday: 30 °F (at 2:20 AM)
Average temperature yesterday: 37 °F

High & Low Weather Summary for the Past Weeks

 TemperatureHumidityPressure
High55 °F (Feb 1, 11:20 AM)100% (Jan 25, 1:50 AM)30.57 "Hg (Jan 25, 1:50 AM)
Low28 °F (Jan 25, 5:20 AM)47% (Jan 25, 2:50 PM)29.62 "Hg (Feb 7, 9:20 AM)
Average42 °F81%30.23 "Hg
* Reported Jan 24 2:20 PM — Feb 8 2:50 PM, Singen (Hohentwiel), Weather by CustomWeather, © 2016

Note: Actual official high and low records may vary slightly from our data, if they occured in-between our weather recording intervals... More about our weather records

Advertising

Singen (Hohentwiel) Weather History for the Previous 24 Hours

 ConditionsComfort  
Time TempWeatherWind HumidityBarometerVisibility
2:50 PM
Mon, Feb 8
54 °FPartly sunny.23 mph54%29.71 "HgN/A
2:20 PM52 °FPartly sunny.21 mph54%29.71 "HgN/A
1:50 PM52 °FPartly sunny.20 mph54%29.68 "HgN/A
1:20 PM52 °FBroken clouds.23 mph54%29.71 "HgN/A
12:50 PM50 °FBroken clouds.20 mph58%29.71 "HgN/A
12:20 PM48 °FSunny.17 mph62%29.71 "Hg10 mi
11:50 AM48 °FSunny.9 mph58%29.74 "Hg10 mi
11:20 AM46 °FSunny.12 mph62%29.74 "Hg10 mi
10:50 AM45 °FSunny.13 mph61%29.74 "Hg10 mi
10:20 AM45 °FBroken clouds.8 mph61%29.80 "HgN/A
9:50 AM43 °FBroken clouds.9 mph66%29.80 "HgN/A
9:20 AM41 °FPartly sunny.10 mph70%29.80 "HgN/A
8:50 AM43 °FPartly sunny.9 mph61%29.83 "HgN/A
8:20 AM43 °FPartly sunny.8 mph61%29.83 "HgN/A
7:50 AM41 °FPartly sunny.7 mph66%29.83 "HgN/A
7:20 AM41 °FPartly cloudy.9 mph66%29.83 "HgN/A
6:50 AM41 °FPartly cloudy.10 mph66%29.83 "HgN/A
6:20 AM41 °FPassing clouds.7 mph66%29.83 "HgN/A
5:50 AM39 °FPassing clouds.6 mph75%29.83 "HgN/A
5:20 AM39 °FPassing clouds.9 mph75%29.86 "HgN/A
4:20 AM37 °FClear.9 mph81%29.86 "Hg10 mi
3:50 AM36 °FPassing clouds.9 mph87%29.89 "HgN/A
3:20 AM37 °FPassing clouds.9 mph81%29.89 "HgN/A
2:50 AM37 °FClear.7 mph81%29.89 "Hg10 mi
2:20 AM37 °FClear.7 mph81%29.89 "Hg10 mi
1:50 AM41 °FClear.8 mph70%29.92 "Hg10 mi
12:50 AM41 °FClear.13 mph70%29.92 "Hg10 mi
12:20 AM41 °FClear.16 mph70%29.92 "Hg10 mi
11:50 PM
Sun, Feb 7
41 °FClear.14 mph76%29.95 "Hg10 mi
11:20 PM41 °FPassing clouds.12 mph76%29.92 "HgN/A
10:50 PM41 °FClear.10 mph76%29.95 "Hg10 mi
10:20 PM41 °FPassing clouds.9 mph76%29.92 "HgN/A
9:50 PM41 °FPassing clouds.10 mph81%29.92 "HgN/A
9:20 PM41 °FPassing clouds.9 mph81%29.92 "HgN/A
8:50 PM41 °FPassing clouds.10 mph81%29.92 "HgN/A
8:20 PM41 °FPartly cloudy.6 mph81%29.92 "HgN/A
7:50 PM41 °FPassing clouds.8 mph81%29.92 "HgN/A
7:20 PM41 °FPassing clouds.6 mph81%29.92 "HgN/A
6:50 PM41 °FLight rain. Partly cloudy.6 mph81%29.89 "HgN/A
6:20 PM41 °FLight rain. Partly cloudy.8 mph87%29.89 "HgN/A
5:50 PM41 °FLight rain. Passing clouds.8 mph87%29.86 "HgN/A
5:20 PM41 °FLight rain. Broken clouds.5 mph87%29.86 "HgN/A
4:50 PM41 °FLight rain. Partly sunny.7 mph87%29.86 "HgN/A
4:20 PM41 °FLight rain. Broken clouds.9 mph87%29.86 "HgN/A
Weather by CustomWeather, © 2016

See weather overviewHow to use our weather pages